Regional Weather Roundup
Issued by NWS

Home | Current Version | Previous Version | Text Only | Print | Product List | Glossary On
Versions: 1 2 3 4 5 6 7 8 9 10 11 12 13 14 15 16 17 18 19 20 21 22 23 24 25 26 27 28 29 30 31 32 33 34 35 36 37 38 39 40 41 42 43 44 45 46 47 48 49 50
000
ASUS44 KMEG 190810
RWRTN
TENNESSEE HOURLY STATE WEATHER ROUNDUP
NATIONAL WEATHER SERVICE MEMPHIS TN
200 AM CST SUN NOV 19 2017

TNZ002-004-019-021-049-052-054-088>092-190900-
WEST TENNESSEE

CITY           SKY/WX    TMP DP  RH WIND       PRES   REMARKS
MEMPHIS INTL   CLEAR     42  35  76 NW7       30.12S
NWS MEMPHIS      N/A     41 N/A N/A MISG        N/A
JACKSON        CLEAR     41  35  79 W6        30.09S
DYERSBURG      CLEAR     41  34  76 W5        30.10
COVINGTON      CLEAR     41  34  75 NW5       30.11R
UNION CITY     CLEAR     41  34  75 NW18      30.07S
BOLIVAR        CLEAR     41  34  75 W5        30.09S
PARIS          CLEAR     39  34  81 CALM      30.05R
HUNTINGDON     CLEAR     39  34  81 W5        30.05S
LEXINGTON      CLEAR     41  34  75 NW5       30.06R
SELMER         CLEAR     39  36  87 W5        30.07R
SAVANNAH       PTCLDY    43  36  75 CALM      30.07R
$$

TNZ008-025-027-028-033-062-065-066-190900-
NORTH MIDDLE TENNESSEE

CITY           SKY/WX    TMP DP  RH WIND       PRES   REMARKS
NASHVILLE      CLOUDY    44  32  62 NW10      30.02R
PORTLAND       CLOUDY    41  34  75 NW7       29.99R
CLARKSVILLE    CLOUDY    43  33  68 NW13G21   30.03R
SMYRNA         CLOUDY    44  34  67 NW12G22   30.02R
COOKEVILLE     CLOUDY    41  36  81 VRB7G13   29.96S
GALLATIN       CLOUDY    43  32  65 NW9G17    30.02S
CROSSVILLE     CLOUDY    37  34  89 NW14G21   29.94R WCI  28
$$

TNZ061-075-076-078-094-096-097-190900-
SOUTH MIDDLE TENNESSEE

CITY           SKY/WX    TMP DP  RH WIND       PRES   REMARKS
FAYETTEVILLE   CLOUDY    45  37  76 NW9       30.00R
TULLAHOMA      CLOUDY    43  37  81 NW7       29.99R
WINCHESTER     CLOUDY    43  36  75 N6        30.00R
MCMINNVILLE    CLOUDY    43  36  75 NW7       29.98S
COLUMBIA       CLOUDY    43  34  70 NW6       30.01R
SHELBYVILLE    CLOUDY    43  37  81 NW7       30.00S
$$

TNZ017-018-042-046-047-190900-
NORTHEAST TENNESSEE

CITY           SKY/WX    TMP DP  RH WIND       PRES   REMARKS
TRI CITIES     CLOUDY    45  42  89 W13       29.80R
ELIZABETHTON     N/A     46  39  76 W7        29.80S
$$

TNZ012-013-036-069-073-074-190900-
CENTRAL EAST TENNESSEE

CITY           SKY/WX    TMP DP  RH WIND       PRES   REMARKS
KNOXVILLE      CLOUDY    44  41  89 W12       29.91R
OAK RIDGE      CLOUDY    44  38  79 VRB3      29.94R
DOWNTOWN KNOXV CLOUDY    46  39  76 VRB3      29.92R
GATLINBURG     CLOUDY    45  37  76 VRB7      29.90R
MORRISTOWN     CLOUDY    43  37  81 NW9G20    29.87R
$$

TNZ083-085-099-190900-
SOUTHEAST TENNESSEE

CITY           SKY/WX    TMP DP  RH WIND       PRES   REMARKS
CHATTANOOGA    CLOUDY    45  36  70 NW12G22   29.97R
$$

SKY/WX REPORTED AS FAIR MEANS FEW OR NO CLOUDS BELOW
12 THOUSAND FEET.





USA.gov is the U.S. government's official web portal to all federal, state and local government web resources and services.